| time (UTC) | temp C | wind direction | speed KPH | gust KPH | rain 1hr cm | rain 24hr cm | rain mn cm | humidity % | barometer mb |
| 20260504081529 | 9 | 160 | 4.8 | 11.3 | 0.00 | 0.00 | 0.00 | 72 | 1010.0 |
| 20260504050001 | 10 | 167 | 3.2 | 9.7 | 0.00 | 0.00 | 0.00 | 66 | 1012.3 |
| 20260504044602 | 10 | 186 | 1.6 | 9.7 | 0.00 | 0.00 | 0.00 | 67 | 1012.3 |
| 20260504043056 | 10 | 169 | 4.8 | 14.5 | 0.00 | 0.00 | 0.00 | 68 | 1012.4 |
| 20260504041558 | 10 | 174 | 4.8 | 9.7 | 0.00 | 0.00 | 0.00 | 71 | 1012.5 |
| 20260504040052 | 9 | 168 | 3.2 | 11.3 | 0.00 | 0.00 | 0.00 | 73 | 1012.6 |
| 20260504034549 | 9 | 169 | 3.2 | 14.5 | 0.00 | 0.00 | 0.00 | 73 | 1012.8 |
| 20260504033049 | 9 | 163 | 3.2 | 8.0 | 0.00 | 0.00 | 0.00 | 73 | 1012.9 |
| 20260504031549 | 9 | 163 | 3.2 | 9.7 | 0.00 | 0.00 | 0.00 | 73 | 1013.0 |
| 20260504030045 | 8 | 166 | 0.0 | 9.7 | 0.00 | 0.00 | 0.00 | 75 | 1013.1 |
| 20260504024600 | 8 | 167 | 4.8 | 11.3 | 0.00 | 0.00 | 0.00 | 78 | 1013.2 |
| 20260504023048 | 8 | 167 | 1.6 | 8.0 | 0.00 | 0.00 | 0.00 | 77 | 1013.5 |
| 20260504021543 | 8 | 169 | 0.0 | 3.2 | 0.00 | 0.00 | 0.00 | 76 | 1013.7 |
| 20260504020044 | 8 | 169 | 1.6 | 11.3 | 0.00 | 0.00 | 0.00 | 76 | 1013.5 |
| 20260504014541 | 8 | 166 | 4.8 | 8.0 | 0.00 | 0.00 | 0.00 | 77 | 1013.3 |
| 20260504013041 | 8 | 165 | 1.6 | 8.0 | 0.00 | 0.00 | 0.00 | 76 | 1013.6 |
| 20260504011541 | 8 | 185 | 1.6 | 6.4 | 0.00 | 0.00 | 0.00 | 76 | 1013.6 |
| 20260504010040 | 8 | 182 | 1.6 | 6.4 | 0.00 | 0.00 | 0.00 | 76 | 1013.4 |
| 20260504004545 | 8 | 170 | 0.0 | 4.8 | 0.00 | 0.00 | 0.00 | 75 | 1013.4 |
| 20260504003043 | 8 | 172 | 3.2 | 6.4 | 0.00 | 0.00 | 0.00 | 75 | 1013.5 |
| 20260504001542 | 9 | 229 | 1.6 | 9.7 | 0.00 | 0.00 | 0.00 | 73 | 1013.6 |
| 20260504000054 | 9 | 159 | 0.0 | 9.7 | 0.00 | 0.00 | 0.00 | 73 | 1013.8 |
| 20260503234542 | 9 | 208 | 3.2 | 11.3 | 0.00 | 0.00 | 0.00 | 71 | 1014.0 |
| 20260503233036 | 10 | 272 | 9.7 | 27.4 | 0.00 | 0.00 | 0.00 | 68 | 1014.5 |
| 20260503231533 | 10 | 277 | 6.4 | 32.2 | 0.00 | 0.00 | 0.00 | 65 | 1014.6 |
| 20260503230033 | 11 | 302 | 16.1 | 30.6 | 0.00 | 0.00 | 0.00 | 59 | 1014.4 |
| 20260503224532 | 12 | 278 | 12.9 | 32.2 | 0.00 | 0.00 | 0.00 | 50 | 1014.2 |
| 20260503223038 | 13 | 250 | 4.8 | 19.3 | 0.00 | 0.00 | 0.00 | 46 | 1014.0 |
| 20260503221537 | 14 | 273 | 4.8 | 20.9 | 0.00 | 0.00 | 0.00 | 43 | 1014.1 |
| 20260503220031 | 14 | 202 | 4.8 | 16.1 | 0.00 | 0.00 | 0.00 | 44 | 1014.0 |
| 20260503214527 | 14 | 244 | 3.2 | 17.7 | 0.00 | 0.00 | 0.00 | 43 | 1014.1 |
| 20260503213027 | 15 | 238 | 6.4 | 22.5 | 0.00 | 0.00 | 0.00 | 43 | 1014.3 |
| 20260503211525 | 15 | 311 | 3.2 | 17.7 | 0.00 | 0.00 | 0.00 | 42 | 1014.2 |
| 20260503210024 | 15 | 197 | 9.7 | 19.3 | 0.00 | 0.00 | 0.00 | 42 | 1014.5 |
| 20260503204523 | 15 | 295 | 8.0 | 16.1 | 0.00 | 0.00 | 0.00 | 39 | 1014.6 |
| 20260503203028 | 15 | 296 | 8.0 | 19.3 | 0.00 | 0.00 | 0.00 | 41 | 1014.8 |
| 20260503201519 | 15 | 263 | 4.8 | 17.7 | 0.00 | 0.00 | 0.00 | 42 | 1014.9 |
| 20260503200018 | 15 | 269 | 3.2 | 24.1 | 0.00 | 0.00 | 0.00 | 42 | 1015.0 |
| 20260503194516 | 16 | 281 | 4.8 | 20.9 | 0.00 | 0.00 | 0.00 | 43 | 1015.4 |
| 20260503193017 | 15 | 272 | 8.0 | 22.5 | 0.00 | 0.00 | 0.00 | 40 | 1015.4 |
| 20260503191513 | 15 | 288 | 9.7 | 20.9 | 0.00 | 0.00 | 0.00 | 40 | 1015.7 |
| 20260503190009 | 15 | 259 | 8.0 | 27.4 | 0.00 | 0.00 | 0.00 | 41 | 1016.0 |
| 20260503184508 | 15 | 257 | 9.7 | 19.3 | 0.00 | 0.00 | 0.00 | 43 | 1016.3 |
| 20260503183006 | 15 | 308 | 11.3 | 27.4 | 0.00 | 0.00 | 0.00 | 40 | 1016.5 |
| 20260503181503 | 15 | 290 | 9.7 | 17.7 | 0.00 | 0.00 | 0.00 | 47 | 1016.5 |
| 20260503180114 | 15 | 296 | 8.0 | 24.1 | 0.00 | 0.00 | 0.00 | 44 | 1016.6 |
| 20260503174558 | 15 | 295 | 6.4 | 24.1 | 0.00 | 0.00 | 0.00 | 43 | 1017.1 |
| 20260503173100 | 14 | 250 | 8.0 | 27.4 | 0.00 | 0.00 | 0.00 | 44 | 1017.3 |
| 20260503171554 | 14 | 195 | 6.4 | 17.7 | 0.00 | 0.00 | 0.00 | 44 | 1017.4 |